World > North America > United States > Alabama

Hourly Central, AL Regional Weather

Feedback E-mail the Weather

Quick WX

Central, AL Weather Maps

°F °C°F °C
Central Weather Map
UTC Time: 7/5/2022, 03:17
Your Time:

Central, AL Regional Weather

Expires:202207050400;;700700
ASUS44 KBMX 050310
RWRAL 
             
ALABAMA REGIONAL WEATHER ROUNDUP
NATIONAL WEATHER SERVICE BIRMINGHAM AL
1000 PM CDT MON JUL 04 2022

NOTE: "FAIR" INDICATES FEW OR NO CLOUDS BELOW 12,000 FEET
WITH NO SIGNIFICANT WEATHER AND/OR OBSTRUCTIONS TO VISIBILITY.

THE REMARK "TC" DENOTES TEMPERATURE IN DEGREES CELSIUS.


ALZ015-024>026-033>036-041>044-050400-
CENTRAL ALABAMA
  
CITY           SKY/WX    TMP DP  RH WIND       PRES   REMARKS
BIRMINGHAM     PTCLDY    80  74  81 S3        30.11R                  
MONTGOMERY     MOCLDY    81  76  84 CALM      30.08R                  
SHELBY CO ARPT PTCLDY    78  73  84 CALM      30.08F HAZE             
MAXWELL AFB    MOCLDY    79  73  83 CALM      30.06S                  
GREENVILLE     FAIR      74  74 100 CALM      30.10R                  
SELMA          FAIR      75  75 100 SW5       30.08S                  
PRATTVILLE     FAIR      77  75  92 CALM      30.08R                  
BESSEMER       FAIR      76  75  97 CALM      30.11R                  
TALLADEGA      FAIR     N/A N/A N/A CALM      30.09S                  
PELL CITY      CLEAR     81  73  78 CALM      30.09R                  
SYLACAUGA      CLOUDY    80  74  84 W5        30.10S                  
$$
 

SKY/WX - Weather  TMP - Temperature  DP - Dew Point  RH - Humidity
WIND - Wind Direction/Speed PRES - Barometric Pressure VSB - Visibility
WCI - Wind Chill Index E13G22 Wind - East Wind 13 mph/Gusts of 22 mph

Trending Headlines

Central Radar Loop



Central Quick Facts


National Two Day Weather Forecast


E-mail the Central Weather Forecast

Voice your opinion or tell us about page issues...